Location: Capvern
(43.1036°N, 0.3160°E)
Time: 10:42:58
(UTC+00:00)

Cosmos 489 Rocket - Pass Details

Date: 03 June 2022
Orbit: 952 x 983 km, 74.0° (Epoch: 01 July)

Event Time Altitude Azimuth Distance (km) Brightness Sun altitude
Rises 01:16:19 0° 347° (NNW) 3,648 8.4 -22.1°
Reaches altitude 10° 01:19:14 10° 358° (N) 2,702 7.8 -21.9°
Maximum altitude 01:24:35 29° 57° (ENE) 1,701 6.3 -21.6°
Drops below altitude 10° 01:29:55 10° 116° (ESE) 2,708 6.8 -21.2°
Sets 01:32:50 0° 128° (SE) 3,656 7.4 -21.0°
